Time,TemperatureF,DewpointF,PressureIn,WindDirection,WindDirectionDegrees,WindSpeedMPH,WindSpeedGustMPH,Humidity,HourlyPrecipIn,Conditions,Clouds,dailyrainin,SoftwareType,DateUTC
2013-05-01 00:00:00,70.0,55.0,30.00,North,0,0.0,0.0,60,0.00,,,0.06,,2013-05-01 04:00:00,
2013-05-01 00:23:00,70.0,55.0,30.00,North,0,0.0,0.0,60,0.00,,,0.06,,2013-05-01 04:23:00,
2013-05-01 00:32:00,70.0,55.0,30.00,North,0,0.0,0.0,60,0.00,,,0.06,,2013-05-01 04:32:00,
2013-05-01 00:43:00,70.0,55.0,30.00,North,0,0.0,0.0,60,0.00,,,0.06,,2013-05-01 04:43:00,
2013-05-01 00:52:00,70.0,55.0,30.00,North,0,0.0,0.0,60,0.00,,,0.06,,2013-05-01 04:52:00,
2013-05-01 08:32:00,63.0,54.0,30.13,South,183,5.0,10.0,72,0.00,,,0.06,,2013-05-01 12:32:00,
2013-05-01 08:42:00,63.0,54.0,30.13,South,183,5.0,10.0,72,0.00,,,0.06,,2013-05-01 12:42:00,
2013-05-01 08:52:00,64.0,54.0,30.13,SW,223,6.0,13.0,71,0.00,,,0.06,,2013-05-01 12:52:00,
2013-05-01 09:01:00,65.0,55.0,30.13,South,183,5.0,14.0,69,0.00,,,0.06,,2013-05-01 13:01:00,
2013-05-01 09:11:00,65.0,55.0,30.13,South,183,5.0,14.0,69,0.00,,,0.06,,2013-05-01 13:11:00,
2013-05-01 09:22:00,66.0,55.0,30.13,SW,222,9.0,14.0,67,0.00,,,0.06,,2013-05-01 13:22:00,
2013-05-01 09:32:00,67.0,55.0,30.13,SW,215,12.0,20.0,66,0.00,,,0.06,,2013-05-01 13:32:00,
2013-05-01 09:42:00,67.0,55.0,30.13,SW,215,12.0,20.0,66,0.00,,,0.06,,2013-05-01 13:42:00,
2013-05-01 09:52:00,67.0,55.0,30.13,SSW,195,9.0,17.0,65,0.00,,,0.06,,2013-05-01 13:52:00,
2013-05-01 10:02:00,68.0,55.0,30.14,SW,224,9.0,17.0,64,0.00,,,0.06,,2013-05-01 14:02:00,
2013-05-01 10:11:00,68.0,55.0,30.14,SW,224,9.0,17.0,64,0.00,,,0.06,,2013-05-01 14:11:00,
2013-05-01 10:22:00,69.0,56.0,30.13,South,179,9.0,16.0,63,0.00,,,0.03,,2013-05-01 14:22:00,
2013-05-01 10:32:00,70.0,56.0,30.14,SSW,199,5.0,15.0,62,0.00,,,0.00,,2013-05-01 14:32:00,
2013-05-01 10:42:00,70.0,56.0,30.14,SSW,199,5.0,15.0,62,0.00,,,0.00,,2013-05-01 14:42:00,
2013-05-01 10:52:00,71.0,57.0,30.14,NNE,20,6.0,20.0,61,0.00,,,0.00,,2013-05-01 14:52:00,
2013-05-01 11:01:00,72.0,57.0,30.14,SW,214,9.0,16.0,60,0.00,,,0.00,,2013-05-01 15:01:00,
2013-05-01 11:11:00,72.0,57.0,30.14,SW,214,9.0,16.0,60,0.00,,,0.00,,2013-05-01 15:11:00,
2013-05-01 11:21:00,73.0,57.0,30.14,SSW,211,9.0,16.0,58,0.00,,,0.00,,2013-05-01 15:21:00,
2013-05-01 11:33:00,74.0,58.0,30.14,SSW,212,8.0,17.0,57,0.00,,,0.00,,2013-05-01 15:33:00,
2013-05-01 11:43:00,74.0,58.0,30.14,SSW,212,8.0,17.0,57,0.00,,,0.00,,2013-05-01 15:43:00,
2013-05-01 11:53:00,74.0,57.0,30.15,SW,225,9.0,16.0,56,0.00,,,0.00,,2013-05-01 15:53:00,
2013-05-01 12:03:00,75.0,58.0,30.14,SSW,193,6.0,14.0,56,0.00,,,0.00,,2013-05-01 16:03:00,
2013-05-01 12:12:00,75.0,58.0,30.14,SSW,193,6.0,14.0,56,0.00,,,0.00,,2013-05-01 16:12:00,
2013-05-01 12:22:00,76.0,59.0,30.14,SSW,205,6.0,15.0,55,0.00,,,0.00,,2013-05-01 16:22:00,
2013-05-01 12:32:00,76.0,59.0,30.14,WSW,241,3.0,14.0,55,0.00,,,0.00,,2013-05-01 16:32:00,
2013-05-01 12:42:00,76.0,59.0,30.14,WSW,241,3.0,14.0,55,0.00,,,0.00,,2013-05-01 16:42:00,
2013-05-01 12:53:00,78.0,59.0,30.14,SW,217,6.0,13.0,53,0.00,,,0.00,,2013-05-01 16:53:00,
2013-05-01 13:02:00,78.0,59.0,30.14,SSW,198,4.0,13.0,53,0.00,,,0.00,,2013-05-01 17:02:00,
2013-05-01 13:12:00,78.0,59.0,30.14,SSW,198,4.0,13.0,53,0.00,,,0.00,,2013-05-01 17:12:00,
2013-05-01 13:22:00,79.0,60.0,30.13,SSE,163,4.0,12.0,52,0.00,,,0.00,,2013-05-01 17:22:00,
2013-05-01 13:32:00,79.0,59.0,30.14,SW,214,5.0,14.0,51,0.00,,,0.00,,2013-05-01 17:32:00,
2013-05-01 13:42:00,79.0,59.0,30.14,SW,214,5.0,14.0,51,0.00,,,0.00,,2013-05-01 17:42:00,
2013-05-01 13:52:00,80.0,60.0,30.13,South,190,5.0,15.0,50,0.00,,,0.00,,2013-05-01 17:52:00,
2013-05-01 14:01:00,80.0,59.0,30.13,South,185,8.0,16.0,48,0.00,,,0.00,,2013-05-01 18:01:00,
2013-05-01 14:11:00,80.0,59.0,30.13,South,185,8.0,16.0,48,0.00,,,0.00,,2013-05-01 18:11:00,
2013-05-01 14:22:00,81.0,59.0,30.13,SW,229,6.0,17.0,47,0.00,,,0.00,,2013-05-01 18:22:00,
2013-05-01 14:32:00,81.0,59.0,30.13,SSW,206,10.0,22.0,48,0.00,,,0.00,,2013-05-01 18:32:00,
2013-05-01 14:42:00,81.0,59.0,30.13,SSW,206,10.0,22.0,48,0.00,,,0.00,,2013-05-01 18:42:00,
2013-05-01 14:52:00,81.0,59.0,30.13,SSE,168,6.0,16.0,47,0.00,,,0.00,,2013-05-01 18:52:00,
2013-05-01 15:02:00,81.0,58.0,30.13,SSW,206,7.0,15.0,45,0.00,,,0.00,,2013-05-01 19:02:00,
2013-05-01 15:11:00,81.0,58.0,30.13,SSW,206,7.0,15.0,45,0.00,,,0.00,,2013-05-01 19:11:00,
2013-05-01 15:22:00,83.0,59.0,30.13,South,178,6.0,12.0,45,0.00,,,0.00,,2013-05-01 19:22:00,
2013-05-01 15:32:00,82.0,57.0,30.13,South,181,5.0,16.0,43,0.00,,,0.00,,2013-05-01 19:32:00,
2013-05-01 15:43:00,82.0,57.0,30.13,South,181,5.0,16.0,43,0.00,,,0.00,,2013-05-01 19:43:00,
2013-05-01 15:52:00,83.0,58.0,30.13,SSE,149,9.0,17.0,42,0.00,,,0.00,,2013-05-01 19:52:00,
2013-05-01 16:02:00,82.0,57.0,30.13,ESE,110,5.0,16.0,43,0.00,,,0.00,,2013-05-01 20:02:00,
2013-05-01 16:11:00,82.0,57.0,30.13,ESE,110,5.0,16.0,43,0.00,,,0.00,,2013-05-01 20:11:00,
2013-05-01 16:21:00,83.0,57.0,30.12,SE,136,7.0,16.0,41,0.00,,,0.00,,2013-05-01 20:21:00,
2013-05-01 16:32:00,83.0,55.0,30.12,South,179,6.0,15.0,39,0.00,,,0.00,,2013-05-01 20:32:00,
2013-05-01 16:42:00,83.0,55.0,30.12,South,179,6.0,15.0,39,0.00,,,0.00,,2013-05-01 20:42:00,
2013-05-01 16:52:00,83.0,55.0,30.12,SSW,204,3.0,14.0,38,0.00,,,0.00,,2013-05-01 20:52:00,
2013-05-01 17:01:00,82.0,53.0,30.12,SE,146,6.0,20.0,37,0.00,,,0.00,,2013-05-01 21:01:00,
2013-05-01 17:11:00,82.0,53.0,30.12,SE,146,6.0,20.0,37,0.00,,,0.00,,2013-05-01 21:11:00,
2013-05-01 17:22:00,82.0,54.0,30.12,SE,134,6.0,21.0,38,0.00,,,0.00,,2013-05-01 21:22:00,
2013-05-01 17:32:00,82.0,55.0,30.12,SSW,204,10.0,17.0,40,0.00,,,0.00,,2013-05-01 21:32:00,
2013-05-01 17:43:00,82.0,55.0,30.12,SSW,204,10.0,17.0,40,0.00,,,0.00,,2013-05-01 21:43:00,
2013-05-01 17:53:00,82.0,56.0,30.13,SSW,204,8.0,22.0,41,0.00,,,0.00,,2013-05-01 21:53:00,
2013-05-01 18:03:00,82.0,56.0,30.13,South,183,10.0,20.0,41,0.00,,,0.00,,2013-05-01 22:03:00,
2013-05-01 18:12:00,82.0,56.0,30.13,South,183,10.0,20.0,41,0.00,,,0.00,,2013-05-01 22:12:00,
2013-05-01 18:23:00,82.0,57.0,30.13,South,177,4.0,20.0,42,0.00,,,0.00,,2013-05-01 22:23:00,
2013-05-01 18:33:00,81.0,56.0,30.13,South,189,10.0,20.0,42,0.00,,,0.00,,2013-05-01 22:33:00,
2013-05-01 18:42:00,81.0,56.0,30.13,South,189,10.0,20.0,42,0.00,,,0.00,,2013-05-01 22:42:00,
2013-05-01 18:53:00,81.0,56.0,30.13,NNE,20,9.0,20.0,43,0.00,,,0.00,,2013-05-01 22:53:00,
2013-05-01 19:02:00,81.0,56.0,30.13,South,188,9.0,15.0,43,0.00,,,0.00,,2013-05-01 23:02:00,
2013-05-01 19:12:00,81.0,56.0,30.13,South,188,9.0,15.0,43,0.00,,,0.00,,2013-05-01 23:12:00,
2013-05-01 19:21:00,80.0,55.0,30.13,SSW,206,10.0,17.0,43,0.00,,,0.00,,2013-05-01 23:21:00,
2013-05-01 19:32:00,80.0,55.0,30.13,South,183,9.0,20.0,43,0.00,,,0.00,,2013-05-01 23:32:00,
2013-05-01 19:42:00,80.0,55.0,30.13,South,183,9.0,20.0,43,0.00,,,0.00,,2013-05-01 23:42:00,
2013-05-01 19:52:00,80.0,56.0,30.14,SSW,198,9.0,21.0,44,0.00,,,0.00,,2013-05-01 23:52:00,
2013-05-01 20:01:00,79.0,55.0,30.14,South,173,9.0,16.0,44,0.00,,,0.00,,2013-05-02 00:01:00,
2013-05-01 20:11:00,79.0,55.0,30.14,South,173,9.0,16.0,44,0.00,,,0.00,,2013-05-02 00:11:00,
2013-05-01 20:21:00,78.0,56.0,30.14,SSE,158,1.0,13.0,46,0.00,,,0.00,,2013-05-02 00:21:00,
2013-05-01 20:30:00,77.0,55.0,30.14,SE,146,3.0,8.0,47,0.00,,,0.00,,2013-05-02 00:30:00,
2013-05-01 20:32:00,78.0,56.0,30.14,SSW,193,3.0,12.0,46,0.00,,,0.00,,2013-05-02 00:32:00,
2013-05-01 20:42:00,78.0,56.0,30.14,SSW,193,3.0,12.0,46,0.00,,,0.00,,2013-05-02 00:42:00,
2013-05-01 20:52:00,77.0,55.0,30.14,SE,146,3.0,8.0,47,0.00,,,0.00,,2013-05-02 00:52:00,
2013-05-01 21:01:00,77.0,55.0,30.14,SE,146,3.0,8.0,47,0.00,,,0.00,,2013-05-02 01:01:00,
2013-05-01 21:11:00,77.0,55.0,30.14,SE,146,3.0,8.0,47,0.00,,,0.00,,2013-05-02 01:11:00,
2013-05-01 21:22:00,77.0,55.0,30.14,SE,146,3.0,8.0,47,0.00,,,0.00,,2013-05-02 01:22:00,
2013-05-01 21:52:00,77.0,55.0,30.16,North,0,0.0,0.0,47,0.00,,,0.00,,2013-05-02 01:52:00,
2013-05-01 22:02:00,77.0,55.0,30.16,North,0,0.0,0.0,47,0.00,,,0.00,,2013-05-02 02:02:00,
2013-05-01 22:12:00,77.0,55.0,30.16,North,0,0.0,0.0,47,0.00,,,0.00,,2013-05-02 02:12:00,
2013-05-01 22:21:00,77.0,55.0,30.16,North,0,0.0,0.0,47,0.00,,,0.00,,2013-05-02 02:21:00,